Date String (YYYY-MM-DD hh:mm:ss) UTC,Instrument flags,Ambient pressure (hPa),Sample flow (lpm),Bypass flow (lpm),Sample temperature (°C),Ambient temperature (°C),ASC tube jacket temperature (°C),LED temperature (°C),Box temperature (°C),Sample RH (%),Span deviation,Mass concentration (μg/m³),Mass concentration (μg/m³),Mass concentration (μg/m³)
DateTimeUTC,F1_M11,P_M11,Q1_M11,Q2_M11,T1_M11,T2_M11,T3_M11,T4_M11,T5_M11,U1_M11,ZSPAN_M11,X0_M11,X2_M11,X1_M11
2021-08-26 01:00:00,,0829.9,5.00,0.00,29.2,27.7,00.0,38.2,31.1,32.8,0002.3,0023.76,0010.02,0008.25
2021-08-26 01:01:00,,0830.0,4.99,0.00,29.2,28.0,00.0,38.2,31.2,32.7,0002.4,0024.27,0010.08,0008.27
2021-08-26 01:02:00,,0829.9,5.01,0.00,29.3,28.3,00.0,38.2,31.3,32.4,0002.4,0024.89,0010.07,0008.26
2021-08-26 01:03:00,,0830.0,5.00,0.00,29.4,28.5,00.0,38.3,31.4,32.3,0002.3,0024.82,0010.03,0008.25
2021-08-26 01:04:00,,0830.0,4.99,0.00,29.4,28.3,00.0,38.3,31.3,31.7,0002.3,0025.24,0009.98,0008.21
2021-08-26 01:05:00,,0830.0,5.01,0.00,29.3,26.6,00.0,38.3,30.8,31.7,0002.3,0026.23,0009.98,0008.16
2021-08-26 01:06:00,,0829.9,5.01,0.00,29.2,25.8,00.0,38.3,30.6,31.5,0002.2,0027.37,0009.93,0008.12
2021-08-26 01:07:00,,0829.9,5.00,0.00,29.1,26.0,00.0,38.3,30.6,31.6,0002.6,0025.98,0009.87,0008.08
2021-08-26 01:08:00,,0829.9,5.00,0.00,29.1,26.4,00.0,38.2,30.7,31.5,0002.7,0025.60,0009.81,0008.04
2021-08-26 01:09:00,,0829.9,4.98,0.00,29.1,27.0,00.0,38.2,30.8,31.2,0002.4,0025.51,0009.75,0007.99
2021-08-26 01:10:00,,0829.9,5.01,0.00,29.1,27.4,00.0,38.2,30.9,31.0,0002.2,0026.52,0009.68,0007.92
2021-08-26 01:11:00,,0830.0,4.99,0.00,29.2,27.8,00.0,38.2,31.1,31.2,0002.4,0025.95,0009.54,0007.85
2021-08-26 01:12:00,,0829.9,5.00,0.00,29.2,28.1,00.0,38.2,31.2,31.1,0002.5,0025.37,0009.47,0007.79
2021-08-26 01:13:00,,0830.0,4.99,0.00,29.3,28.4,00.0,38.2,31.3,31.1,0002.4,0025.32,0009.42,0007.75
2021-08-26 01:14:00,,0830.0,5.02,0.00,29.4,28.6,00.0,38.3,31.4,31.1,0002.3,0025.29,0009.43,0007.71
2021-08-26 01:15:00,,0829.9,5.00,0.00,29.4,27.8,00.0,38.3,31.1,31.0,0002.4,0025.38,0009.40,0007.68
2021-08-26 01:16:00,,0829.9,5.00,0.00,29.3,26.2,00.0,38.3,30.6,31.2,0002.2,0024.45,0009.36,0007.67
2021-08-26 01:17:00,,0829.9,5.01,0.00,29.1,25.7,00.0,38.3,30.5,31.7,0002.2,0023.41,0009.36,0007.65
2021-08-26 01:18:00,,0829.9,5.00,0.00,29.1,26.0,00.0,38.2,30.6,31.5,0001.7,0023.98,0009.37,0007.66
2021-08-26 01:19:00,,0829.8,4.99,0.00,29.0,26.6,00.0,38.2,30.7,31.1,0001.5,0023.69,0009.32,0007.65
2021-08-26 01:20:00,,0829.9,5.00,0.00,29.1,27.0,00.0,38.2,30.9,31.2,0001.6,0023.54,0009.29,0007.63
2021-08-26 01:21:00,,0829.9,5.01,0.00,29.1,27.5,00.0,38.2,31.0,31.0,0001.7,0023.74,0009.31,0007.66
2021-08-26 01:22:00,,0830.0,5.00,0.00,29.2,27.8,00.0,38.2,31.1,30.6,0001.7,0023.66,0009.31,0007.67
2021-08-26 01:23:00,,0830.0,4.99,0.00,29.2,28.1,00.0,38.2,31.2,30.3,0001.5,0023.44,0009.31,0007.63
2021-08-26 01:24:00,,0829.9,5.01,0.00,29.3,28.4,00.0,38.2,31.3,30.2,0001.7,0022.82,0009.27,0007.58
2021-08-26 01:25:00,,0829.9,5.00,0.00,29.4,28.6,00.0,38.3,31.4,30.0,0001.8,0022.36,0009.22,0007.53
2021-08-26 01:26:00,,0829.9,5.00,0.00,29.4,28.7,00.0,38.3,31.4,29.7,0001.5,0020.93,0009.15,0007.49
2021-08-26 01:27:00,,0829.9,5.00,0.00,29.4,27.3,00.0,38.3,31.0,29.6,0001.4,0020.42,0009.04,0007.44
2021-08-26 01:28:00,,0829.9,5.01,0.00,29.2,26.0,00.0,38.3,30.6,29.7,0001.4,0019.86,0008.89,0007.38
2021-08-26 01:29:00,,0829.9,5.00,0.00,29.1,25.8,00.0,38.3,30.6,30.1,0001.6,0019.00,0008.83,0007.31
2021-08-26 01:30:00,,0829.9,5.00,0.00,29.1,26.2,00.0,38.2,30.6,30.5,0001.3,0019.88,0008.80,0007.30
2021-08-26 01:31:00,,0829.9,5.01,0.00,29.1,26.7,00.0,38.2,30.8,30.6,0001.4,0020.56,0008.85,0007.29
2021-08-26 01:32:00,,0829.9,5.00,0.00,29.1,27.2,00.0,38.2,30.9,30.6,0001.5,0020.12,0008.84,0007.26
2021-08-26 01:33:00,,0829.9,5.00,0.00,29.2,27.6,00.0,38.2,31.0,30.4,0001.4,0020.31,0008.86,0007.24
2021-08-26 01:34:00,,0829.9,5.00,0.00,29.2,27.9,00.0,38.2,31.1,30.1,0001.7,0021.21,0008.83,0007.25
2021-08-26 01:35:00,,0829.9,4.99,0.00,29.3,28.2,00.0,38.2,31.2,29.7,0001.3,0021.48,0008.80,0007.23
2021-08-26 01:36:00,,0829.9,5.00,0.00,29.3,28.4,00.0,38.3,31.3,29.6,0001.2,0022.75,0008.77,0007.22
2021-08-26 01:37:00,,0829.9,5.00,0.00,29.4,28.6,00.0,38.3,31.4,29.3,0001.5,0022.81,0008.80,0007.20
2021-08-26 01:38:00,,0829.9,5.00,0.00,29.5,28.5,00.0,38.3,31.3,29.1,0001.9,0022.78,0008.78,0007.18
2021-08-26 01:39:00,,0830.0,5.01,0.00,29.4,26.9,00.0,38.3,30.9,29.0,0002.1,0022.69,0008.78,0007.15
2021-08-26 01:40:00,,0829.9,5.00,0.00,29.2,25.8,00.0,38.3,30.6,29.1,0002.2,0023.12,0008.85,0007.14
2021-08-26 01:41:00,,0829.9,5.01,0.00,29.1,25.8,00.0,38.3,30.6,29.5,0002.7,0023.23,0008.86,0007.09
2021-08-26 01:42:00,,0829.9,5.00,0.00,29.1,26.3,00.0,38.2,30.7,29.9,0003.0,0022.65,0008.81,0007.07
2021-08-26 01:43:00,,0829.9,4.98,0.00,29.1,26.8,00.0,38.2,30.8,30.2,0002.6,0021.65,0008.72,0007.03
2021-08-26 01:44:00,,0830.1,5.01,0.00,29.1,27.2,00.0,38.2,31.0,30.0,0002.6,0021.62,0008.65,0007.02
2021-08-26 01:45:00,,0829.9,4.99,0.00,29.2,27.6,00.0,38.2,31.1,30.4,0002.4,0021.94,0008.69,0007.00
2021-08-26 01:46:00,,0829.9,5.00,0.00,29.2,27.9,00.0,38.2,31.1,31.0,0002.4,0021.52,0008.77,0007.03
2021-08-26 01:47:00,,0829.9,5.00,0.00,29.3,28.1,00.0,38.2,31.2,31.9,0002.7,0020.10,0008.81,0007.10
2021-08-26 01:48:00,,0829.9,4.99,0.00,29.3,28.4,00.0,38.3,31.3,32.0,0002.6,0021.53,0008.84,0007.18
2021-08-26 01:49:00,,0830.0,5.00,0.00,29.4,28.5,00.0,38.3,31.4,32.1,0002.5,0022.53,0008.95,0007.28
2021-08-26 01:50:00,,0830.0,5.00,0.00,29.5,28.5,00.0,38.3,31.4,32.2,0002.4,0024.27,0009.12,0007.40
2021-08-26 01:51:00,,0830.0,5.00,0.00,29.4,27.2,00.0,38.3,31.0,32.4,0002.2,0024.27,0009.20,0007.51
2021-08-26 01:52:00,,0830.0,4.99,0.00,29.3,25.8,00.0,38.3,30.6,32.8,0002.2,0023.95,0009.32,0007.65
2021-08-26 01:53:00,,0830.0,5.01,0.00,29.1,25.6,00.0,38.3,30.5,33.2,0002.3,0023.79,0009.44,0007.78
2021-08-26 01:54:00,,0830.0,5.00,0.00,29.0,26.0,00.0,38.3,30.5,33.4,0002.4,0024.41,0009.52,0007.88
2021-08-26 01:55:00,,0830.0,4.99,0.00,29.0,26.5,00.0,38.2,30.7,33.5,0002.5,0024.61,0009.68,0007.98
2021-08-26 01:56:00,,0830.1,5.00,0.00,29.1,26.9,00.0,38.2,30.8,33.5,0002.4,0024.05,0009.78,0008.08
2021-08-26 01:57:00,,0830.0,4.99,0.00,29.1,27.4,00.0,38.2,30.9,33.3,0002.5,0024.01,0009.90,0008.15
2021-08-26 01:58:00,,0830.1,5.00,0.00,29.1,27.7,00.0,38.2,31.0,33.2,0002.4,0024.74,0010.07,0008.20
2021-08-26 01:59:00,,0830.1,5.00,0.00,29.2,28.0,00.0,38.2,31.1,33.2,0002.2,0023.91,0010.17,0008.25
